[[{"header":{"parameterUnit":"m.s-1","parameterCategory":1,"la1":30.2991,"la2":30.254,"lo1":-89.0895,"lo2":-89.0444,"dy":0.0017,"dx":0.0017,"nx":28,"ny":28,"refTime":"2025-04-11T21:00:00:Z","depth":0,"parameterNumber":2,"parameterNumberName":"U-component_of_WINDS"},"data":[0,0,0,0,0,0,0,0,0,0,0,0,0,0,0,0,0,0,0,0,0,0,0,0,0,0,0,0,0,0,0,0,0,0,0,0,0,0,0,0,0,0,0,0,0,0,0,0,0,0,0,0,0,0,0,0,0,0,1.4166,1.4166,0,1.4248,1.4249,1.425,1.4279,1.4279,1.4278,1.4278,1.4367,1.4369,1.4372,0,0,0,0,0,0,0,0,0,0,0,0,0,1.4038,1.404,1.4165,1.4167,1.4168,1.4248,1.4249,1.4251,1.4279,1.4278,1.4278,1.4278,1.4366,1.4369,1.4372,0,0,0,0,0,0,0,0,0,0,0,0,0,1.4104,1.4041,1.4165,1.4191,1.4194,1.4248,1.4249,1.4251,1.4279,1.4278,1.4278,1.4277,1.4365,1.4369,1.4373,1.4408,0,0,1.4385,1.4387,0,0,0,0,0,0,0,0,1.41,1.4109,1.4186,1.419,1.4193,1.4253,1.4237,1.4304,1.4279,1.4247,1.4278,1.4277,1.433,1.4336,1.4353,1.4412,1.4416,1.4385,1.4388,1.439,1.4391,0,0,0,0,0,0,0,1.4096,1.4106,1.4198,1.4188,1.4192,1.4201,1.421,1.425,1.429,1.425,1.4252,1.4261,1.4331,1.4349,1.4356,1.4417,1.4385,1.4389,1.4391,1.4393,1.4512,1.4513,0,0,0,0,0,0,1.4086,1.4101,1.4196,1.4201,1.4145,1.4204,1.4213,1.4234,1.429,1.4298,1.4262,1.4262,1.4343,1.4351,1.4359,1.4405,1.439,1.4393,1.4396,1.4512,1.4512,1.4513,0,0,0,0,0,0,1.4083,1.4094,1.4192,1.4152,1.4165,1.4206,1.4229,1.4236,1.4254,1.4299,1.4307,1.4272,1.4343,1.4353,1.4396,1.4409,1.4395,1.4399,1.4511,1.4512,1.4513,1.4497,0,0,0,0,0,0,1.4079,1.4093,1.4105,1.4152,1.4167,1.4226,1.423,1.4238,1.426,1.4262,1.4311,1.4318,1.4343,1.439,1.44,1.4414,1.4402,1.451,1.4511,1.4513,1.4497,1.4498,1.4498,0,0,0,0,0,1.4075,1.4098,1.4105,1.4117,1.4183,1.4227,1.4236,1.4262,1.4261,1.4275,1.4304,1.4317,1.4406,1.4394,1.4406,1.4421,1.4509,1.4511,1.4512,1.4496,1.4497,1.4498,0,0,0,0,0,0,1.4052,1.4104,1.4113,1.4152,1.4184,1.4231,1.4249,1.4262,1.4297,1.4297,1.4331,1.4341,1.4382,1.4406,1.4392,1.446,1.4458,1.4462,1.4442,1.4444,1.4444,1.4438,1.4405,0,0,0,0,0,1.4051,1.4081,1.4126,1.4155,1.4171,1.4207,1.4227,1.4245,1.4281,1.4296,1.4328,1.4364,1.44,1.4423,1.4459,1.4501,1.4513,1.4517,1.4518,1.4519,1.4522,1.4548,1.4552,1.4519,1.4519,1.4519,0,0,1.405,1.4082,1.4099,1.4151,1.4179,1.4211,1.4219,1.4252,1.4277,1.4301,1.4343,1.4369,1.4411,1.4454,1.4475,1.4475,1.4534,1.4521,1.4521,1.4524,1.4551,1.4554,1.4556,1.452,1.452,1.452,0,0,1.4065,1.4091,1.412,1.4148,1.4189,1.4213,1.422,1.4266,1.4283,1.4326,1.4346,1.4377,1.4438,1.4468,1.4492,1.4521,1.4535,1.4532,1.4536,1.4562,1.4564,1.4567,1.4579,1.4583,1.4535,1.4535,1.4535,0,1.4058,1.4106,1.4133,1.4166,1.4189,1.4213,1.4243,1.4269,1.4321,1.4338,1.4337,1.4416,1.4446,1.4498,1.4505,1.4523,1.4534,1.4526,1.4561,1.4564,1.4567,1.4579,1.4583,1.4534,1.4535,1.4535,1.4535,0,1.4097,1.413,1.4148,1.4197,1.4223,1.4254,1.4288,1.4312,1.4328,1.4354,1.4399,1.4436,1.4481,1.4494,1.4511,1.4549,1.4549,1.4554,1.4554,1.4569,1.4581,1.4586,1.4534,1.4534,1.4534,1.4534,0,0,1.4098,1.4163,1.4169,1.4192,1.4241,1.4268,1.4302,1.4345,1.4365,1.4401,1.4432,1.4484,1.4491,1.4517,1.4538,1.456,1.4584,1.4564,1.4566,1.4567,1.4631,1.4626,1.4631,1.4593,1.4594,1.4595,1.4628,0,1.4119,1.4179,1.4206,1.4254,1.4287,1.4311,1.4341,1.4376,1.4401,1.4434,1.4462,1.45,1.4504,1.4521,1.4544,1.4576,1.4597,1.4574,1.4624,1.4626,1.4613,1.4637,1.4632,1.4661,1.4632,1.4633,1.4634,0,1.4152,1.4187,1.4238,1.4286,1.43,1.4326,1.437,1.44,1.4441,1.4458,1.4489,1.4509,1.4548,1.4546,1.4602,1.4585,1.4608,1.4627,1.4629,1.4635,1.463,1.4644,1.467,1.4675,1.4641,1.464,1.464,0,1.4149,1.4209,1.4248,1.4268,1.4323,1.4342,1.4366,1.4407,1.4432,1.447,1.4487,1.453,1.4554,1.4588,1.462,1.4614,1.4674,1.4673,1.4691,1.469,1.4702,1.4701,1.4733,1.4716,1.4716,1.4716,1.4715,0,1.417,1.4201,1.4248,1.4272,1.4308,1.4341,1.4377,1.4403,1.4439,1.4471,1.4495,1.4525,1.4565,1.4601,1.4627,1.4671,1.4681,1.4698,1.4704,1.4696,1.4694,1.4711,1.471,1.4717,1.4716,1.4716,1.4716,0,1.4172,1.4204,1.4249,1.4299,1.4312,1.4337,1.4381,1.4407,1.4434,1.4474,1.4485,1.4529,1.4572,1.4608,1.4665,1.4682,1.4729,1.4736,1.4714,1.4718,1.4734,1.4732,1.4778,1.4787,1.4763,1.4763,1.4764,0,1.4183,1.4208,1.4261,1.4283,1.4307,1.4342,1.4368,1.4402,1.4429,1.4479,1.4499,1.4544,1.4582,1.4651,1.4689,1.4733,1.4742,1.4756,1.4749,1.4741,1.4744,1.4743,1.4746,1.4756,1.4756,1.4756,1.4756,0,1.4201,1.4217,1.4252,1.4294,1.4324,1.4359,1.4394,1.4412,1.4453,1.4482,1.4526,1.4555,1.4614,1.466,1.4709,1.4737,1.4754,1.4758,1.4765,1.4756,1.4743,1.4752,1.4717,1.4757,1.4757,1.4757,1.4757,1.4757,1.4209,1.4233,1.4274,1.4313,1.4344,1.4377,1.4405,1.4436,1.4473,1.4522,1.4541,1.4587,1.4631,1.4698,1.4727,1.4765,1.4767,1.4776,1.4779,1.4781,1.478,1.4737,1.4774,1.4774,1.4774,1.4774,1.4774,0,1.4229,1.4257,1.4293,1.4342,1.4374,1.4387,1.4428,1.4455,1.4494,1.4533,1.457,1.4622,1.4667,1.4709,1.4757,1.478,1.4789,1.4791,1.479,1.4797,1.4775,1.4765,1.4783,1.4783,1.4783,1.4783,1.4783,1.4783,1.4243,1.4284,1.4305,1.4363,1.4392,1.4436,1.4458,1.4491,1.4522,1.4579,1.4616,1.4643,1.4684,1.4735,1.4778,1.479,1.4807,1.4806,1.482,1.4799,1.4798,1.4797,1.4787,1.481,1.481,1.4839,1.4839,1.484]},{"header":{"parameterUnit":"m.s-1","parameterCategory":1,"la1":30.2991,"la2":30.254,"lo1":-89.0895,"lo2":-89.0444,"dy":0.0017,"dx":0.0017,"nx":28,"ny":28,"refTime":"2025-04-11T21:00:00:Z","depth":0,"parameterNumber":3,"parameterNumberName":"V-component_of_WINDS"},"data":[0,0,0,0,0,0,0,0,0,0,0,0,0,0,0,0,0,0,0,0,0,0,0,0,0,0,0,0,0,0,0,0,0,0,0,0,0,0,0,0,0,0,0,0,0,0,0,0,0,0,0,0,0,0,0,0,0,0,-1.457,-1.4569,0,-1.4492,-1.4491,-1.449,-1.4523,-1.4525,-1.4527,-1.4529,-1.4445,-1.4441,-1.4437,0,0,0,0,0,0,0,0,0,0,0,0,0,-1.4746,-1.4743,-1.457,-1.4569,-1.4568,-1.4492,-1.4491,-1.449,-1.4523,-1.4525,-1.4528,-1.453,-1.4446,-1.4442,-1.4437,0,0,0,0,0,0,0,0,0,0,0,0,0,-1.4669,-1.4742,-1.457,-1.4576,-1.4575,-1.4492,-1.4491,-1.4489,-1.4522,-1.4525,-1.4528,-1.4531,-1.4448,-1.4442,-1.4436,-1.4342,0,0,-1.4418,-1.4415,0,0,0,0,0,0,0,0,-1.4673,-1.4662,-1.4576,-1.4575,-1.4575,-1.452,-1.4522,-1.444,-1.4522,-1.4542,-1.4529,-1.4532,-1.4468,-1.446,-1.4439,-1.4338,-1.4335,-1.4417,-1.4414,-1.4411,-1.441,0,0,0,0,0,0,0,-1.4679,-1.4666,-1.4539,-1.4574,-1.4574,-1.4581,-1.4573,-1.4507,-1.449,-1.4541,-1.4543,-1.4533,-1.4468,-1.4445,-1.4437,-1.4333,-1.4418,-1.4412,-1.4409,-1.4406,-1.4153,-1.415,0,0,0,0,0,0,-1.4684,-1.467,-1.4541,-1.4537,-1.4632,-1.4576,-1.4567,-1.4535,-1.4491,-1.4487,-1.4531,-1.4535,-1.4454,-1.4444,-1.4435,-1.4322,-1.4411,-1.4406,-1.4402,-1.4156,-1.4152,-1.4148,0,0,0,0,0,0,-1.4688,-1.4673,-1.4545,-1.4604,-1.4588,-1.457,-1.4533,-1.4532,-1.4509,-1.4483,-1.448,-1.4511,-1.4456,-1.4443,-1.4365,-1.432,-1.4403,-1.4397,-1.4159,-1.4154,-1.415,-1.4096,0,0,0,0,0,0,-1.4693,-1.4674,-1.4638,-1.4603,-1.4585,-1.4477,-1.453,-1.4528,-1.4499,-1.4503,-1.4464,-1.446,-1.4457,-1.4374,-1.4359,-1.4313,-1.4393,-1.4163,-1.4157,-1.4152,-1.4101,-1.409,-1.408,0,0,0,0,0,-1.4699,-1.4625,-1.4636,-1.462,-1.454,-1.4474,-1.4464,-1.4463,-1.4495,-1.4459,-1.4443,-1.4461,-1.4327,-1.4366,-1.435,-1.43,-1.4166,-1.4159,-1.4152,-1.4106,-1.4092,-1.408,0,0,0,0,0,0,-1.4653,-1.462,-1.4632,-1.4545,-1.4512,-1.448,-1.4434,-1.4448,-1.4405,-1.4411,-1.4411,-1.4402,-1.4321,-1.4303,-1.4347,-1.4208,-1.4251,-1.4241,-1.4222,-1.4208,-1.4198,-1.4203,-1.4388,0,0,0,0,0,-1.4633,-1.4583,-1.4557,-1.4482,-1.4465,-1.4453,-1.4424,-1.4426,-1.4392,-1.4378,-1.4357,-1.4322,-1.4273,-1.424,-1.4192,-1.41,-1.4091,-1.4058,-1.4047,-1.4038,-1.4028,-1.3979,-1.3964,-1.4125,-1.4125,-1.4125,0,0,-1.459,-1.4566,-1.4535,-1.4472,-1.4447,-1.4395,-1.4441,-1.4383,-1.4344,-1.4369,-1.4295,-1.4278,-1.424,-1.4154,-1.4115,-1.4136,-1.3982,-1.4029,-1.4022,-1.4017,-1.397,-1.3955,-1.3941,-1.412,-1.4121,-1.4122,0,0,-1.4486,-1.4463,-1.4399,-1.4373,-1.4336,-1.4328,-1.4313,-1.4279,-1.4269,-1.4195,-1.4213,-1.4167,-1.4081,-1.4053,-1.4028,-1.3915,-1.3931,-1.39,-1.3842,-1.3794,-1.3781,-1.377,-1.373,-1.3716,-1.3891,-1.3891,-1.3891,0,-1.4437,-1.436,-1.4363,-1.4305,-1.4277,-1.4299,-1.4234,-1.4209,-1.4157,-1.4137,-1.4162,-1.4056,-1.4032,-1.3941,-1.3914,-1.3892,-1.3874,-1.3904,-1.3783,-1.3772,-1.3761,-1.3723,-1.3708,-1.3887,-1.3888,-1.3888,-1.3888,0,-1.4303,-1.4249,-1.4201,-1.4153,-1.412,-1.4058,-1.4051,-1.4017,-1.4023,-1.4013,-1.3938,-1.391,-1.3858,-1.3836,-1.3841,-1.3746,-1.376,-1.3784,-1.3828,-1.3742,-1.3707,-1.3692,-1.3882,-1.3883,-1.3885,-1.3885,0,0,-1.4165,-1.4121,-1.4103,-1.4082,-1.4044,-1.4002,-1.3942,-1.3892,-1.3863,-1.3827,-1.3777,-1.3705,-1.3727,-1.3698,-1.37,-1.3658,-1.3571,-1.3687,-1.3686,-1.3666,-1.3465,-1.3447,-1.343,-1.3581,-1.3579,-1.3576,-1.3468,0,-1.4058,-1.3953,-1.3955,-1.3858,-1.3808,-1.383,-1.3777,-1.3748,-1.3737,-1.3693,-1.3681,-1.363,-1.3663,-1.3646,-1.3605,-1.359,-1.353,-1.3598,-1.3533,-1.3531,-1.3542,-1.3411,-1.3392,-1.3291,-1.3454,-1.3452,-1.345,0,-1.3918,-1.388,-1.3778,-1.3748,-1.3728,-1.368,-1.3636,-1.3594,-1.3561,-1.3557,-1.3526,-1.3534,-1.3473,-1.352,-1.3435,-1.3481,-1.3455,-1.3443,-1.344,-1.3433,-1.3485,-1.3401,-1.3259,-1.3244,-1.3428,-1.343,-1.3432,0,-1.3829,-1.3751,-1.3681,-1.3662,-1.3625,-1.3592,-1.3574,-1.3545,-1.3515,-1.3477,-1.3458,-1.3412,-1.3386,-1.335,-1.3346,-1.3381,-1.3261,-1.3307,-1.3255,-1.3255,-1.3228,-1.3229,-1.3079,-1.3212,-1.3212,-1.3212,-1.3213,0,-1.3708,-1.3645,-1.364,-1.3596,-1.3526,-1.3529,-1.346,-1.3446,-1.3419,-1.3373,-1.3389,-1.3345,-1.3343,-1.3298,-1.3294,-1.3225,-1.3213,-1.3207,-1.3207,-1.3206,-1.3206,-1.3188,-1.3195,-1.3208,-1.3209,-1.321,-1.3211,0,-1.3595,-1.3589,-1.3514,-1.3486,-1.3478,-1.3427,-1.3403,-1.3362,-1.3354,-1.3295,-1.3281,-1.3268,-1.3216,-1.3209,-1.3148,-1.3146,-1.3062,-1.307,-1.3074,-1.3075,-1.3023,-1.3028,-1.2855,-1.2833,-1.298,-1.2979,-1.2977,0,-1.3518,-1.3471,-1.3439,-1.341,-1.3391,-1.3344,-1.3315,-1.3316,-1.3285,-1.3245,-1.3208,-1.3158,-1.3118,-1.3035,-1.3019,-1.2972,-1.2978,-1.2921,-1.2971,-1.2972,-1.2977,-1.298,-1.2975,-1.2911,-1.2909,-1.2908,-1.2907,0,-1.3383,-1.3383,-1.3341,-1.3298,-1.3264,-1.3229,-1.3197,-1.3173,-1.317,-1.3134,-1.3082,-1.3052,-1.299,-1.294,-1.2895,-1.2877,-1.2891,-1.2892,-1.2877,-1.2875,-1.2879,-1.2876,-1.3047,-1.2895,-1.2896,-1.2897,-1.2898,-1.2898,-1.3285,-1.3244,-1.3216,-1.3169,-1.3146,-1.3116,-1.3076,-1.3064,-1.3021,-1.2972,-1.2975,-1.2918,-1.2888,-1.2828,-1.2807,-1.2762,-1.2781,-1.276,-1.2754,-1.2749,-1.2744,-1.2887,-1.2754,-1.2754,-1.2755,-1.2755,-1.2755,0,-1.3151,-1.3134,-1.3091,-1.3047,-1.301,-1.3029,-1.2995,-1.2962,-1.2912,-1.2883,-1.2845,-1.2785,-1.2738,-1.2719,-1.2672,-1.264,-1.2645,-1.2627,-1.2629,-1.2625,-1.273,-1.2747,-1.2624,-1.2624,-1.2624,-1.2624,-1.2624,-1.2624,-1.3076,-1.3008,-1.3005,-1.2926,-1.2909,-1.2854,-1.2833,-1.2806,-1.2783,-1.2717,-1.2678,-1.2667,-1.2642,-1.2594,-1.2551,-1.2547,-1.2529,-1.2508,-1.2507,-1.2604,-1.2618,-1.263,-1.2647,-1.2504,-1.2504,-1.2406,-1.2405,-1.2404]}]]